sat.trackr.live / text

‹ back to catalog

STARLINK-36726

NORAD 67925 · 2026-036X

PAYLOAD ACTIVE UNKNOWN

§ Identity

Operator
Country
US
Launch date
2026-02-22
Launch site
AFETR
Launch vehicle
Mass (kg)
RCS (m²)

Purposes: comms

External: N2YO · Heavens-Above · Gunter

§ Orbital elements

Epoch: 2026-05-25T01:47:38.198688Z

Period
94.27 min
Inclination
42.9990°
Eccentricity
0.0001158
Mean motion
15.27597943 rev/d
Perigee alt
482.2 km
Apogee alt
483.8 km
Semi-major
6,861.1 km
B*
5.3238e-4
RAAN
173.9323°
Arg perigee
246.8030°
Mean anomaly
113.2700°
Rev number
1,540

§ Raw data

STARLINK-367261 67925U 26036X   26145.07474767  .00014424  00000+0  53238-3 0  99942 67925  42.9990 173.9323 0001158 246.8030 113.2700 15.27597943 15406

JSON: /api/v1/satellites/67925 · /tle

For live sub-satellite position, see the globe view (requires WebGL).

§ Visibility from observer

Set your observer location to see the next 7 days of passes ≥ 10°. The values pass through the URL so the page stays shareable.

No JS? Fill the form by hand. The geolocation button needs JavaScript.